Flag for Germany Weather past 2 weeks in Bielefeld, North Rhine-Westphalia, Germany

Now
54 °F

Passing clouds.


Feels Like: 54 °F
Forecast: 48 / 65 °F
Wind: 3 mph from West

Location: Bad Lippspringe

Current Time: Sep 2, 2015 at 9:31:46 AM

Latest Report: Sep 2, 2015 at 9:00 AM


Visibility: 9 mi

Pressure: 30.04 "Hg

Humidity: 88%

Dew point: 51 °F

Location of BielefeldLocation

Historic Weather in Bielefeld — Graph

°F

Bielefeld temperature yesterday

Maximum temperature yesterday: 69 °F (at 3:00 AM)
Minimum temperature yesterday: 56 °F (at 11:00 PM)
Average temperature yesterday: 63 °F

Past Weeks' High & Low Weather Summary

 TemperatureHumidityPressure
High90 °F (Aug 31, 4:00 PM)100% (Aug 19, 7:00 AM)30.27 "Hg (Aug 19, 7:00 AM)
Low49 °F (Aug 29, 6:00 AM)27% (Aug 31, 4:00 PM)29.59 "Hg (Aug 24, 6:00 PM)
Average66 °F72%29.99 "Hg
* Reported Aug 18 8:00 AM — Sep 2 8:00 AM, Bielefeld, Weather by CustomWeather, © 2015

Note: Actual official high and low records may vary slightly from our data, if they occured in-between our weather recording intervals... More about our weather records

Advertising

Bielefeld weather history for previous 24 hours

 ConditionsComfort  
Time TempWeatherWind HumidityBarometerVisibility
8:00 AM
Wed, Sep 2
52 °FSunny.1 mph94%30.04 "Hg6 mi
7:00 AM51 °FFog.2 mph97%30.04 "Hg4 mi
5:00 AM51 °FFog.2 mph98%30.04 "Hg4 mi
4:00 AM52 °FPassing clouds.2 mph98%30.04 "Hg5 mi
3:00 AM52 °FClear.1 mph98%30.04 "Hg5 mi
2:00 AM53 °FFog.1 mph99%30.03 "Hg4 mi
1:00 AM54 °FFog.2 mph99%30.03 "Hg3 mi
11:00 PM
Tue, Sep 1
56 °FOvercast.2 mph98%30.00 "Hg5 mi
10:00 PM57 °FPassing clouds.2 mph97%29.99 "Hg6 mi
9:00 PM57 °FOvercast.1 mph98%29.98 "Hg7 mi
8:00 PM58 °FOvercast.2 mph93%29.96 "Hg12 mi
7:00 PM58 °FLight freezing rain. Low clouds.3 mph93%29.95 "Hg6 mi
6:00 PM59 °FOvercast.2 mph93%29.92 "Hg15 mi
5:00 PM59 °FDrizzle. Low clouds.3 mph95%29.90 "Hg14 mi
4:00 PM61 °FLight rain. Low clouds.3 mph97%29.88 "Hg4 mi
3:00 PM61 °FLight rain. Low clouds.3 mph95%29.88 "Hg4 mi
2:00 PM61 °FLight rain. Overcast.2 mph95%29.85 "Hg4 mi
1:00 PM61 °FRain. Low clouds.2 mph97%29.83 "Hg2 mi
12:00 PM61 °FRain. Overcast.6 mph94%29.82 "Hg3 mi
11:00 AM64 °FOvercast.3 mph87%29.80 "Hg10 mi
10:00 AM64 °FOvercast.2 mph84%29.80 "Hg13 mi
9:00 AM65 °FOvercast.6 mph78%29.82 "Hg12 mi
Weather by CustomWeather, © 2015

See weather overviewHow to use our weather pages